#timestamp,LO_Frequency,Hit 
1505570415.5,286046998.6,N
1505570435.4,286046999.6,N
1505570455.2,286047005.1,P
1505570475.0,286047007.4,N
1505570476.0,286047007.4,N
1505570495.8,286047004.6,N
1505570515.6,286047005.8,N
1505570535.4,286047007.6,N
1505570555.3,286047006.0,N
1505570575.1,286047001.4,N
1505570595.8,286047002.6,N
1505570615.7,286046998.7,N
1505570635.5,286047000.6,N
1505570655.3,286046997.7,N
1505570675.2,286046998.5,N
1505570695.9,286046999.3,N
1505570715.7,286047003.1,N
1505570735.6,286046999.9,N
1505570755.4,286047000.2,N
1505570775.2,286047029.7,P
1505570795.1,286047027.1,N
1505570796.0,286047027.1,N
1505570815.8,286047024.5,N
1505570835.6,286047020.3,N
1505570855.5,286047017.5,N
1505570875.3,286047017.8,N
1505570895.1,286047017.3,N
1505570915.8,286047016.8,N
1505570935.7,286047016.7,N
1505570955.5,286047017.0,N
1505570975.3,286047015.0,N
1505570995.2,286047012.9,N
1505571015.9,286047009.8,N
1505571035.7,286047010.2,N
1505571055.6,286047010.4,N
1505571075.4,286047007.0,N
1505571095.2,286047011.7,N
1505571115.1,286047010.7,N
1505571116.0,286047010.7,N
1505571135.8,286047008.9,N
1505571155.6,286047003.5,N
1505571175.5,286047003.9,N
1505571195.3,286047004.9,N
1505571215.1,286047007.2,N
1505571235.8,286047006.2,N
1505571255.7,286047008.0,N
1505571275.5,286047010.4,N
1505571295.3,286047006.6,N
1505571315.2,286047010.8,N
1505571335.0,286047008.0,N
1505571335.9,286047008.0,N
1505571355.7,286047012.0,N
1505571375.6,286047011.8,N
1505571395.4,286047010.2,N
1505571415.2,286047007.2,N
1505571435.1,286047007.4,N
1505571436.0,286047007.4,N
1505571455.8,286047003.0,N
1505571475.6,286047006.9,N
1505571495.5,286047004.7,N
1505571515.3,286047008.6,N
1505571535.1,286047008.5,P
1505571555.9,286046999.8,N
1505571575.7,286046999.5,N
1505571595.5,286046995.8,N
1505571615.4,286046993.3,N
1505571635.2,286046993.8,N
1505571655.0,286046994.5,N
1505571655.9,286046994.5,N
1505571675.8,286046998.0,N
1505571695.6,286046993.4,N
1505571715.4,286046999.1,N
1505571735.2,286046998.6,N
1505571755.1,286046998.6,N
1505571756.0,286046998.6,N
1505571775.8,286046997.3,N
1505571795.6,286046995.1,N
1505571815.5,286046991.9,N
1505571835.3,286046994.0,N
1505571855.1,286046993.7,N
1505571875.9,286046994.2,N
1505571895.7,286046994.6,N
1505571915.5,286046994.2,N
1505571935.4,286046992.4,N
1505571955.2,286046991.0,N
1505571975.0,286046989.3,N
1505571975.9,286046989.3,N
1505571995.8,286046989.4,N
1505572015.6,286046989.8,N
1505572035.4,286046988.7,N
1505572055.2,286046990.8,N
1505572075.1,286046993.2,N
1505572076.0,286046993.2,N
1505572095.8,286046992.5,N
1505572115.7,286046990.4,P
1505572135.5,286046996.8,N
1505572155.3,286046994.7,N
1505572175.2,286046992.1,P
1505572195.9,286047000.5,N
1505572215.7,286047000.0,N
1505572235.6,286047000.9,N
1505572255.4,286046997.7,N
1505572275.2,286046998.6,N
1505572295.0,286046999.7,N
1505572295.9,286046999.7,N
1505572315.8,286047002.8,N
1505572335.6,286047004.0,N
1505572355.4,286047004.3,N
1505572375.3,286047003.7,N
1505572395.1,286047005.6,N
1505572415.8,286047005.6,N
1505572435.7,286047006.2,N
1505572455.5,286047007.3,N
1505572475.3,286047006.3,N
1505572495.2,286047005.9,N
1505572515.9,286047002.9,N
1505572535.7,286047002.0,N
1505572555.6,286047002.5,N
1505572575.4,286047004.2,N
1505572595.2,286047002.7,N
1505572615.0,286047002.8,N
1505572615.9,286047002.8,N
1505572635.8,286047001.7,N
1505572655.6,286047001.5,N
1505572675.4,286047002.2,N
1505572695.3,286046998.7,N
1505572715.1,286047000.8,N
1505572716.0,286047000.8,N
1505572735.8,286047003.9,N
1505572755.7,286047001.4,N
1505572775.5,286047002.5,N
1505572795.3,286047003.1,N
1505572815.2,286047002.9,N
1505572835.9,286047003.2,N
1505572855.7,286047003.0,N
1505572875.6,286047002.0,N
1505572895.4,286047003.1,N
1505572915.2,286047005.9,P
1505572935.1,286047001.6,N
1505572936.0,286047001.6,N
1505572955.8,286047002.8,N
1505572975.6,286047001.9,N
1505572995.5,286046999.6,N
1505573015.3,286046998.6,N
1505573035.1,286047001.1,N
1505573055.8,286046996.5,N
1505573075.7,286046997.4,N
1505573095.5,286046995.5,N
1505573115.3,286046995.6,N
1505573135.2,286046997.9,N
1505573155.0,286046997.7,N
1505573155.9,286046997.7,N
1505573175.7,286046995.6,N
1505573195.6,286046991.7,N
1505573215.4,286046993.0,N
1505573235.2,286046990.5,N
1505573255.1,286046990.4,N
1505573256.0,286046990.4,N
1505573275.8,286046990.1,N
1505573295.6,286046992.4,N
1505573315.5,286046992.1,N
1505573335.3,286046993.9,N
1505573355.1,286046998.4,N
1505573375.9,286047000.6,N
1505573395.7,286046998.7,N
1505573415.5,286046997.8,N
1505573435.3,286046994.0,N
1505573455.2,286046992.2,N
1505573475.0,286046991.3,N
1505573475.9,286046991.3,N
1505573495.7,286046991.6,N
1505573515.6,286046995.9,N
1505573535.4,286046992.5,N
1505573555.2,286046989.9,P
1505573575.1,286046993.3,N
1505573576.0,286046993.3,P
1505573595.8,286046995.3,N
1505573615.6,286047001.0,N
1505573635.5,286046999.6,N
1505573655.3,286046999.4,N
1505573675.1,286046996.7,N
1505573695.9,286047000.9,N
1505573715.7,286047000.4,N
1505573735.5,286047000.6,N
1505573755.4,286046999.7,N
1505573775.2,286046997.0,N
1505573795.0,286046997.1,N
1505573795.9,286046997.1,N
1505573815.8,286046999.6,N
1505573835.6,286046999.1,N
1505573855.4,286046998.2,N
1505573875.2,286047001.1,N
1505573895.1,286046999.3,N
1505573896.0,286046999.3,N
1505573915.8,286046996.8,N
1505573935.6,286046997.3,N
1505573955.5,286046999.3,N
1505573975.3,286046998.8,N
1505573995.1,286047000.9,N
